When you browse on this site, cookies collect data to enhance your experience and personalize the content and advertising you see.
Visit our Privacy Policy to learn more. By continuing to use the site, you agree to this use of cookies and data.

Météo par heure à Tyrol

Ce jour, 11 Août, Mardi

Heure Température Précipitation Vent Pression Humidité
00:00 +14°C° 0.1 mm 1 m/s 642 mmHg 87%
01:00 +14°C° 0.1 mm 1 m/s 642 mmHg 87%
02:00 +14°C° 0 mm 1 m/s 641 mmHg 87%
03:00 +13°C° 0 mm 1 m/s 641 mmHg 87%
04:00 +13°C° 0 mm 1 m/s 641 mmHg 86%
05:00 +15°C° 0 mm 1 m/s 642 mmHg 83%
06:00 +16°C° 0 mm 1 m/s 642 mmHg 80%
07:00 +18°C° 0 mm 1 m/s 643 mmHg 77%
08:00 +20°C° 0.2 mm 1 m/s 643 mmHg 69%
09:00 +22°C° 0.2 mm 1 m/s 644 mmHg 61%
10:00 +25°C° 0.2 mm 1 m/s 645 mmHg 53%
11:00 +25°C° 0.4 mm 1 m/s 645 mmHg 51%
12:00 +26°C° 0.4 mm 1 m/s 645 mmHg 49%
13:00 +26°C° 0.4 mm 1 m/s 645 mmHg 48%
14:00 +25°C° 1.1 mm 1 m/s 644 mmHg 54%
15:00 +24°C° 1.1 mm 1 m/s 644 mmHg 60%
16:00 +23°C° 1.1 mm 1 m/s 643 mmHg 66%
17:00 +22°C° 1.4 mm 1 m/s 643 mmHg 73%
18:00 +20°C° 1.4 mm 1 m/s 643 mmHg 80%
19:00 +19°C° 1.4 mm 1 m/s 642 mmHg 86%
20:00 +18°C° 0.4 mm 1 m/s 642 mmHg 88%
21:00 +16°C° 0.4 mm 1 m/s 642 mmHg 89%
22:00 +15°C° 0.4 mm 1 m/s 642 mmHg 90%
23:00 +15°C° 0 mm 1 m/s 642 mmHg 89%

Demain, 12 Août, Mercredi

Heure Température Précipitation Vent Pression Humidité
00:00 +14°C° 0 mm 1 m/s 642 mmHg 89%
01:00 +14°C° 0 mm 1 m/s 642 mmHg 88%
02:00 +14°C° 0 mm 1 m/s 641 mmHg 88%
03:00 +13°C° 0 mm 1 m/s 641 mmHg 87%
04:00 +13°C° 0 mm 1 m/s 641 mmHg 87%
05:00 +15°C° 0 mm 1 m/s 642 mmHg 84%
06:00 +16°C° 0 mm 1 m/s 642 mmHg 80%
07:00 +18°C° 0 mm 1 m/s 643 mmHg 77%
08:00 +21°C° 0.1 mm 1 m/s 643 mmHg 68%
09:00 +23°C° 0.1 mm 1 m/s 644 mmHg 59%
10:00 +25°C° 0.1 mm 1 m/s 645 mmHg 51%
11:00 +26°C° 0.4 mm 1 m/s 645 mmHg 48%
12:00 +26°C° 0.4 mm 1 m/s 645 mmHg 46%
13:00 +27°C° 0.4 mm 1 m/s 645 mmHg 44%
14:00 +26°C° 0.6 mm 1 m/s 645 mmHg 48%
15:00 +25°C° 0.6 mm 1 m/s 644 mmHg 52%
16:00 +25°C° 0.6 mm 1 m/s 644 mmHg 56%
17:00 +23°C° 1.1 mm 1 m/s 644 mmHg 65%
18:00 +21°C° 1.1 mm 1 m/s 643 mmHg 74%
19:00 +17°C° 1.1 mm 0 m/s 642 mmHg 83%
20:00 +18°C° 0.1 mm 1 m/s 642 mmHg 84%
21:00 +16°C° 0.1 mm 1 m/s 642 mmHg 84%
22:00 +15°C° 0.1 mm 1 m/s 642 mmHg 85%
23:00 +15°C° 0 mm 1 m/s 642 mmHg 85%

Après-demain, 13 Août, Jeudi

Heure Température Précipitation Vent Pression Humidité
00:00 +14°C° 0 mm 1 m/s 642 mmHg 85%
01:00 +14°C° 0 mm 2 m/s 642 mmHg 85%
02:00 +14°C° 0 mm 1 m/s 641 mmHg 85%
03:00 +14°C° 0 mm 1 m/s 641 mmHg 84%
04:00 +14°C° 0 mm 1 m/s 641 mmHg 84%
05:00 +15°C° 0.1 mm 1 m/s 642 mmHg 82%
06:00 +16°C° 0.1 mm 1 m/s 642 mmHg 79%
07:00 +19°C° 0.1 mm 1 m/s 643 mmHg 77%
08:00 +21°C° 0.4 mm 1 m/s 643 mmHg 71%
09:00 +22°C° 0.4 mm 1 m/s 644 mmHg 65%
10:00 +24°C° 0.4 mm 1 m/s 644 mmHg 60%
11:00 +23°C° 1.4 mm 1 m/s 644 mmHg 63%
12:00 +23°C° 1.4 mm 1 m/s 643 mmHg 67%
13:00 +23°C° 1.4 mm 1 m/s 643 mmHg 70%
14:00 +21°C° 2 mm 1 m/s 643 mmHg 77%
15:00 +20°C° 2 mm 1 m/s 642 mmHg 83%
16:00 +19°C° 2 mm 1 m/s 642 mmHg 89%
17:00 +18°C° 0.7 mm 1 m/s 642 mmHg 91%
18:00 +18°C° 0.7 mm 1 m/s 641 mmHg 93%
19:00 +15°C° 0.7 mm 0 m/s 641 mmHg 95%
20:00 +14°C° 0.6 mm 0 m/s 641 mmHg 95%
21:00 +14°C° 0.6 mm 0 m/s 641 mmHg 94%
22:00 +13°C° 0.6 mm 0 m/s 641 mmHg 94%
23:00 +13°C° 0.6 mm 0 m/s 641 mmHg 94%

14 Août, Vendredi

Heure Température Précipitation Vent Pression Humidité
00:00 +13°C° 0.6 mm 0 m/s 641 mmHg 94%
01:00 +13°C° 0.6 mm 0 m/s 641 mmHg 94%
02:00 +12°C° 1 mm 0 m/s 640 mmHg 95%
03:00 +12°C° 1 mm 0 m/s 640 mmHg 95%
04:00 +12°C° 1 mm 0 m/s 640 mmHg 96%
05:00 +13°C° 1.5 mm 1 m/s 640 mmHg 96%
06:00 +14°C° 1.5 mm 1 m/s 640 mmHg 96%
07:00 +14°C° 1.5 mm 1 m/s 640 mmHg 96%
08:00 +14°C° 1.3 mm 1 m/s 640 mmHg 95%
09:00 +15°C° 1.3 mm 1 m/s 641 mmHg 95%
10:00 +15°C° 1.3 mm 1 m/s 641 mmHg 95%
11:00 +15°C° 0.8 mm 1 m/s 641 mmHg 92%
12:00 +16°C° 0.8 mm 1 m/s 641 mmHg 89%
13:00 +16°C° 0.8 mm 1 m/s 641 mmHg 86%
14:00 +18°C° 0.5 mm 1 m/s 641 mmHg 85%
15:00 +18°C° 0.5 mm 1 m/s 641 mmHg 83%
16:00 +18°C° 0.5 mm 1 m/s 641 mmHg 82%
17:00 +16°C° 0.3 mm 1 m/s 641 mmHg 84%
18:00 +16°C° 0.3 mm 1 m/s 641 mmHg 86%
19:00 +14°C° 0.3 mm 0 m/s 640 mmHg 88%
20:00 +13°C° 0 mm 0 m/s 640 mmHg 89%
21:00 +13°C° 0 mm 1 m/s 640 mmHg 90%
22:00 +12°C° 0 mm 1 m/s 640 mmHg 91%
23:00 +11°C° 0 mm 1 m/s 640 mmHg 91%

15 Août, Samedi

Heure Température Précipitation Vent Pression Humidité
00:00 +11°C° 0 mm 1 m/s 640 mmHg 92%
01:00 +11°C° 0 mm 1 m/s 640 mmHg 92%
02:00 +11°C° 0 mm 1 m/s 640 mmHg 93%
03:00 +11°C° 0 mm 1 m/s 639 mmHg 93%
04:00 +10°C° 0 mm 1 m/s 639 mmHg 93%
05:00 +12°C° 0 mm 1 m/s 640 mmHg 91%
06:00 +13°C° 0 mm 1 m/s 640 mmHg 89%
07:00 +14°C° 0 mm 1 m/s 640 mmHg 87%
08:00 +16°C° 0 mm 1 m/s 641 mmHg 77%
09:00 +19°C° 0 mm 1 m/s 642 mmHg 66%
10:00 +22°C° 0 mm 1 m/s 642 mmHg 56%
11:00 +22°C° 0 mm 1 m/s 642 mmHg 52%
12:00 +23°C° 0 mm 1 m/s 642 mmHg 47%
13:00 +24°C° 0 mm 2 m/s 642 mmHg 43%
14:00 +24°C° 0 mm 2 m/s 642 mmHg 45%
15:00 +23°C° 0 mm 2 m/s 642 mmHg 46%
16:00 +23°C° 0 mm 2 m/s 641 mmHg 48%
17:00 +20°C° 0.1 mm 2 m/s 641 mmHg 60%
18:00 +19°C° 0.1 mm 1 m/s 640 mmHg 73%
19:00 +16°C° 0.1 mm 1 m/s 639 mmHg 85%
20:00 +14°C° 0.1 mm 1 m/s 639 mmHg 88%
21:00 +13°C° 0.1 mm 1 m/s 639 mmHg 91%
22:00 +12°C° 0.1 mm 1 m/s 639 mmHg 94%
23:00 +12°C° 0 mm 1 m/s 639 mmHg 94%

16 Août, Dimanche

Heure Température Précipitation Vent Pression Humidité
00:00 +12°C° 0 mm 1 m/s 639 mmHg 94%
01:00 +11°C° 0 mm 1 m/s 639 mmHg 94%
02:00 +11°C° 0 mm 1 m/s 638 mmHg 94%
03:00 +11°C° 0 mm 1 m/s 638 mmHg 94%
04:00 +11°C° 0 mm 1 m/s 638 mmHg 94%
05:00 +12°C° 0 mm 1 m/s 639 mmHg 91%
06:00 +13°C° 0 mm 1 m/s 639 mmHg 88%
07:00 +15°C° 0 mm 1 m/s 640 mmHg 85%
08:00 +18°C° 0 mm 1 m/s 640 mmHg 73%
09:00 +20°C° 0 mm 1 m/s 641 mmHg 61%
10:00 +23°C° 0 mm 1 m/s 642 mmHg 49%
11:00 +23°C° 0 mm 1 m/s 642 mmHg 45%
12:00 +24°C° 0 mm 1 m/s 642 mmHg 40%
13:00 +25°C° 0 mm 2 m/s 642 mmHg 35%
14:00 +25°C° 0 mm 2 m/s 642 mmHg 37%
15:00 +24°C° 0 mm 2 m/s 642 mmHg 38%
16:00 +24°C° 0 mm 2 m/s 641 mmHg 40%
17:00 +21°C° 0 mm 2 m/s 641 mmHg 52%
18:00 +19°C° 0 mm 1 m/s 640 mmHg 65%
19:00 +16°C° 0 mm 1 m/s 639 mmHg 78%
20:00 +15°C° 0 mm 1 m/s 639 mmHg 82%
21:00 +14°C° 0 mm 1 m/s 639 mmHg 85%
22:00 +12°C° 0 mm 1 m/s 639 mmHg 89%
23:00 +12°C° 0 mm 1 m/s 639 mmHg 88%
Voir plus